Location: Brivio
(45.7333°N, 9.4500°E)
Time: 06:21:47
(UTC+00:00)

H-2A R/B - Pass Details

Date: 18 October 2019
Orbit: 733 x 837 km, 98.3° (Epoch: 18 November)

Event Time Altitude Azimuth Distance (km) Brightness Sun altitude
Exits shadow 18:35:44 39° 54° (NE) 1,215 2.7 -22.3°
Drops below altitude 10° 18:40:16 10° 360° (N) 2,444 4.7 -23.1°
Sets 18:42:46 0° 353° (N) 3,390 5.6 -23.5°
